Wind_Speed
17 18 19 20 21 23 24 25 26 28 29 31 32 32 32 35 37 38 39 40 41 41 43 43 44 44 43 43 43 44 44 42 41 40 40 41 42 42 41 41 40 41 41 40
17 17 18 20 22 23 24 25 27 28 30 31 32 33 32 34 37 38 40 41 42 43 44 45 45 45 44 44 44 44 44 44 44 43 43 43 44 44 43 43 42 42 41 41
16 17 18 20 21 22 23 25 27 29 30 30 31 31 32 33 36 37 38 39 41 42 44 45 45 46 46 45 45 44 44 43 44 44 45 46 46 46 46 46 45 44 43 42
17 17 18 19 20 20 20 22 24 25 27 28 28 29 27 30 33 35 37 38 40 42 43 44 46 46 47 47 46 45 45 45 45 45 44 45 46 46 47 47 47 46 45 44
17 17 17 17 18 18 19 19 21 22 24 25 25 27 26 26 28 31 34 36 38 40 41 42 44 45 46 46 47 47 46 46 46 46 46 45 46 47 48 48 48 48 47 46
16 16 16 16 16 17 17 18 19 20 21 22 21 24 24 25 26 28 29 31 34 36 38 40 42 43 44 45 46 47 47 48 47 47 46 46 47 48 48 46 46 47 47 46
15 15 16 16 16 16 17 17 17 18 18 19 20 23 23 23 25 27 29 29 30 31 33 35 37 39 41 42 44 46 48 48 47 47 47 47 47 48 48 47 47 46 46 45
14 14 14 14 15 16 16 16 17 18 18 19 19 20 22 23 23 26 27 28 29 30 31 33 34 37 39 40 43 45 46 46 46 46 46 47 48 47 47 48 48 48 47 47
13 13 14 15 15 16 16 16 17 19 20 19 19 19 20 22 23 25 25 26 28 30 30 32 34 35 37 38 39 41 43 45 47 47 48 47 48 49 49 49 50 50 48 47
14 15 15 15 15 16 18 18 17 18 20 21 22 20 20 21 23 23 25 26 28 29 29 30 32 33 34 36 37 38 39 42 44 45 46 46 47 48 49 49 49 50 50 49
15 15 15 15 16 17 18 18 19 20 20 22 23 21 20 21 22 23 24 26 28 29 29 31 32 33 33 35 36 36 37 39 41 42 43 45 46 46 46 46 47 47 48 49
15 16 16 16 17 18 18 18 19 21 21 22 24 23 22 22 22 22 23 24 27 29 30 31 32 32 32 34 34 35 36 37 39 40 41 42 44 44 44 44 45 44 44 46
17 17 17 18 18 19 19 19 19 21 22 22 23 23 23 23 23 22 23 24 26 28 29 30 32 33 34 35 34 34 34 35 37 38 39 40 41 42 42 43 43 43 43 43
17 18 18 19 20 20 20 20 21 22 23 23 23 23 22 23 23 23 23 24 25 28 29 29 29 32 33 33 33 33 34 35 35 36 38 40 40 41 42 42 42 42 41 40
18 19 19 19 19 19 20 20 21 23 23 24 24 23 22 22 24 24 24 25 26 26 27 29 30 30 31 31 32 33 33 34 35 36 36 38 40 41 40 41 40 40 40 41
19 20 20 19 19 19 20 20 21 22 24 25 25 24 22 23 23 24 24 25 24 25 25 26 28 28 29 30 31 33 33 34 34 35 36 36 38 39 39 40 40 39 39 39
20 21 21 20 20 20 20 19 20 22 23 24 24 24 23 23 23 23 24 25 24 23 24 25 25 26 27 28 31 32 33 34 34 35 35 36 36 37 38 37 37 37 38 39
21 22 22 22 22 21 21 21 21 22 22 23 23 22 22 22 23 24 24 25 24 24 24 24 25 26 27 28 30 31 32 33 34 35 35 35 35 35 35 35 36 36 36 36
22 22 23 23 23 23 22 22 22 23 22 23 23 22 23 23 23 23 24 25 25 25 25 25 25 26 27 27 28 30 30 31 32 33 33 33 33 33 33 34 34 35 35 35
23 23 24 24 24 24 23 23 23 23 23 23 23 23 23 24 24 23 23 24 24 24 24 25 26 27 28 28 28 28 28 29 30 31 31 31 31 31 31 31 32 32 32 32
23 24 24 24 24 24 24 24 23 24 25 24 24 24 23 24 24 24 24 24 24 24 25 25 25 25 26 27 27 28 29 29 30 30 30 31 30 30 29 29 30 30 30 31
25 25 24 24 24 24 25 24 25 26 26 25 25 25 25 25 25 25 25 26 26 26 26 25 26 26 26 26 27 27 28 28 29 29 30 30 31 30 29 29 29 29 30 30
24 24 24 25 25 25 26 26 26 27 27 26 26 25 25 25 25 25 25 25 26 27 27 27 27 27 27 27 28 28 28 27 28 28 29 30 30 30 30 30 30 29 30 30
25 25 25 25 25 27 27 27 27 28 28 27 26 26 25 26 26 26 25 25 25 26 26 27 27 27 27 28 29 29 29 28 29 30 30 30 30 30 30 30 30 30 29 30
25 26 27 27 27 28 28 28 28 28 28 28 27 27 27 26 26 27 27 27 26 26 26 27 27 27 27 28 28 29 29 29 29 30 30 30 30 30 30 30 30 29 29 29
26 27 28 28 28 29 28 28 29 29 29 29 28 28 28 28 27 27 27 27 27 27 27 28 28 28 28 28 28 29 29 29 29 29 29 30 30 30 29 29 29 29 29 29
Wind_Direction
286 284 275 269 270 269 269 267 265 264 264 264 263 260 255 252 250 249 247 246 245 245 244 244 243 244 244 243 243 244 245 246 248 250 251 251 250 250 251 251 253 255 256 257
288 286 282 278 276 273 274 273 270 267 267 268 266 262 259 255 252 250 248 247 248 247 245 244 243 243 244 243 244 246 246 248 249 251 253 252 250 250 250 251 253 256 257 258
289 289 287 283 280 278 277 277 275 272 271 271 270 265 260 258 254 252 251 249 248 247 246 245 243 244 243 243 244 245 247 249 250 250 252 252 250 249 249 251 253 255 257 258
291 291 289 287 284 281 279 279 279 276 273 273 272 269 262 261 256 254 253 251 250 249 247 245 244 243 243 243 244 246 248 249 251 251 252 252 251 250 250 251 253 255 256 258
293 293 291 290 289 287 284 282 280 280 278 275 274 273 268 265 261 257 255 253 252 250 247 246 245 244 244 244 246 247 248 250 251 252 252 252 251 250 250 251 252 254 257 258
295 295 294 296 293 292 290 286 284 283 281 278 275 277 274 270 265 261 256 255 254 250 247 247 247 246 245 245 246 247 249 250 252 253 252 251 251 250 251 253 254 255 255 257
296 296 296 298 297 296 295 292 289 286 283 281 282 281 281 275 271 265 260 258 253 250 248 249 248 247 246 246 246 248 249 250 251 252 251 252 252 252 253 255 256 255 254 256
297 298 299 299 298 297 297 294 292 290 289 290 288 287 284 282 274 267 264 261 256 254 253 252 250 250 249 249 249 249 248 248 249 251 252 253 253 254 254 255 255 254 254 256
298 297 297 298 297 294 291 291 291 290 292 294 294 293 288 284 275 270 266 263 260 257 256 257 254 253 252 251 251 249 249 249 250 251 253 254 255 253 254 256 256 256 257 258
294 292 294 295 294 292 289 289 289 286 288 292 294 295 292 288 282 274 271 268 263 261 261 259 256 255 254 252 250 250 251 251 252 253 255 255 255 257 257 256 257 257 258 259
296 293 292 293 295 294 290 286 285 284 285 288 290 293 296 289 285 280 274 268 265 262 262 261 260 258 255 252 251 252 254 255 254 255 256 257 256 256 257 258 258 259 259 259
298 297 293 293 294 293 290 286 285 284 283 287 288 287 291 292 287 283 277 270 267 266 265 264 262 259 256 254 254 254 255 256 256 257 257 256 256 258 260 261 260 262 262 262
296 298 295 293 292 290 287 285 285 285 284 284 289 288 288 291 289 285 279 275 272 269 268 266 263 260 259 258 258 257 257 257 258 258 257 257 258 258 260 261 261 261 263 265
298 298 297 298 296 292 289 284 283 283 284 284 287 289 289 289 289 286 281 279 277 274 270 268 267 265 262 260 260 261 260 259 259 260 260 259 259 260 261 261 261 262 263 265
297 298 299 299 296 292 291 285 282 282 284 286 289 290 290 288 287 286 283 281 280 276 272 270 268 269 266 263 262 264 263 261 261 262 262 261 260 261 263 263 262 263 264 265
293 295 296 296 296 294 292 287 285 284 284 285 287 290 292 289 289 289 286 285 283 278 273 274 272 270 268 265 265 265 264 264 261 261 261 261 261 262 263 264 263 263 263 264
292 293 294 294 295 295 295 295 290 288 287 288 289 291 290 289 290 290 288 286 284 283 279 276 275 270 268 268 265 265 265 263 261 261 262 264 264 264 264 264 264 264 264 264
293 294 294 293 293 294 298 296 293 292 292 291 291 291 291 289 289 288 288 286 286 286 284 278 273 272 274 273 267 265 265 263 262 262 263 264 265 265 265 265 265 265 265 263
293 294 294 295 294 295 295 296 295 295 293 293 292 291 290 289 290 289 289 289 288 286 283 279 276 278 279 275 271 267 266 265 263 262 262 262 264 266 266 267 267 266 265 264
293 292 292 292 292 293 294 294 293 292 292 294 294 292 290 289 291 291 290 290 290 286 283 282 280 279 278 275 274 271 267 266 263 262 262 262 264 266 267 267 266 266 265 264
292 291 291 292 292 292 293 294 292 291 292 292 293 292 291 290 291 290 288 289 287 286 288 288 286 283 281 280 277 274 270 267 266 264 263 263 263 265 266 267 266 265 265 264
292 293 292 292 292 293 294 293 292 291 292 292 290 290 291 291 290 288 286 287 289 288 287 286 285 286 284 283 281 278 274 270 267 265 264 263 263 264 265 267 267 266 265 265
292 294 295 293 292 291 293 292 291 290 291 291 290 290 289 290 290 289 289 289 290 288 285 285 285 284 283 282 281 277 274 271 268 266 265 265 266 265 265 266 266 266 265 264
290 291 294 293 292 291 291 290 290 290 289 290 289 289 289 289 289 288 289 290 290 288 287 285 285 283 283 281 279 277 274 272 269 267 267 266 266 265 265 264 264 264 263 262
289 289 291 292 292 291 291 290 290 290 289 289 288 287 289 289 289 289 289 289 290 289 289 287 285 284 283 282 281 279 276 274 271 269 268 267 267 266 266 265 264 263 263 261
288 288 290 292 293 293 291 290 290 290 289 288 288 287 287 288 289 290 291 290 290 289 288 287 287 285 285 285 282 281 278 275 273 270 268 268 267 266 265 264 263 262 262 261
Height
5698 5698 5696 5695 5695 5694 5693 5693 5693 5692 5691 5690 5690 5691 5693 5693 5695 5698 5701 5704 5708 5711 5715 5717 5720 5724 5727 5731 5734 5737 5739 5742 5744 5746 5748 5749 5751 5753 5754 5756 5758 5759 5761 5762
5694 5693 5692 5690 5689 5688 5687 5686 5686 5685 5683 5682 5683 5684 5685 5685 5686 5689 5691 5694 5697 5700 5703 5706 5709 5713 5717 5721 5724 5727 5730 5732 5735 5737 5739 5740 5742 5744 5745 5747 5749 5750 5751 5753
5690 5689 5686 5685 5683 5682 5681 5680 5679 5678 5676 5675 5674 5676 5677 5677 5678 5680 5681 5683 5685 5687 5690 5694 5697 5701 5706 5710 5714 5717 5720 5722 5724 5727 5728 5730 5732 5734 5736 5738 5739 5740 5741 5743
5685 5684 5681 5680 5678 5676 5675 5674 5672 5670 5669 5668 5668 5667 5671 5670 5670 5670 5671 5672 5674 5675 5678 5681 5685 5689 5694 5698 5702 5706 5709 5712 5714 5716 5718 5720 5722 5724 5726 5728 5729 5730 5732 5733
5680 5679 5677 5675 5674 5671 5670 5668 5667 5665 5663 5662 5662 5660 5662 5662 5662 5662 5662 5662 5662 5664 5666 5669 5672 5677 5682 5687 5691 5695 5698 5700 5703 5705 5707 5709 5711 5714 5715 5717 5718 5720 5721 5723
5676 5674 5672 5671 5669 5667 5665 5664 5662 5660 5658 5657 5658 5655 5655 5655 5654 5653 5653 5652 5652 5653 5656 5658 5661 5665 5669 5674 5678 5683 5686 5689 5691 5693 5695 5697 5700 5702 5704 5706 5707 5709 5711 5712
5672 5670 5668 5667 5665 5663 5661 5660 5657 5655 5653 5653 5653 5650 5650 5649 5648 5646 5646 5646 5645 5645 5646 5649 5651 5655 5659 5662 5666 5671 5674 5677 5679 5682 5683 5685 5688 5690 5692 5694 5696 5698 5700 5701
5668 5667 5665 5663 5661 5660 5657 5656 5654 5652 5649 5648 5647 5645 5646 5644 5642 5640 5639 5639 5638 5639 5639 5641 5643 5645 5649 5652 5655 5658 5662 5665 5667 5669 5671 5674 5675 5677 5679 5682 5684 5686 5688 5689
5664 5663 5661 5659 5657 5656 5653 5652 5650 5647 5644 5642 5641 5641 5640 5638 5636 5635 5634 5633 5632 5632 5633 5634 5635 5637 5639 5641 5644 5646 5650 5653 5655 5657 5660 5661 5663 5665 5667 5669 5671 5673 5675 5677
5660 5659 5658 5655 5653 5651 5650 5647 5645 5642 5639 5637 5636 5635 5635 5632 5631 5630 5628 5627 5626 5626 5626 5627 5627 5628 5629 5630 5633 5636 5638 5640 5643 5645 5647 5650 5651 5653 5655 5657 5658 5660 5662 5664
5656 5655 5653 5651 5649 5647 5645 5643 5640 5638 5636 5633 5630 5632 5630 5627 5625 5624 5622 5621 5620 5619 5619 5619 5620 5620 5620 5621 5623 5625 5628 5630 5632 5634 5636 5638 5639 5641 5642 5644 5646 5647 5649 5651
5652 5650 5648 5647 5645 5642 5639 5638 5636 5634 5632 5629 5626 5629 5625 5622 5620 5618 5616 5615 5614 5613 5612 5612 5611 5611 5612 5612 5613 5616 5618 5619 5621 5623 5625 5627 5628 5630 5631 5632 5633 5635 5636 5638
5647 5646 5643 5641 5641 5638 5634 5632 5630 5628 5626 5624 5622 5624 5620 5617 5614 5612 5610 5608 5607 5605 5604 5604 5604 5603 5603 5604 5605 5607 5608 5609 5611 5612 5614 5616 5618 5619 5620 5621 5622 5623 5625 5626
5642 5640 5639 5637 5634 5631 5629 5627 5625 5622 5620 5618 5618 5617 5615 5612 5609 5607 5604 5602 5600 5598 5597 5596 5596 5595 5595 5596 5597 5598 5598 5599 5601 5603 5604 5606 5608 5609 5610 5611 5612 5613 5614 5615
5637 5635 5633 5631 5628 5625 5623 5621 5619 5617 5615 5613 5612 5610 5609 5606 5603 5600 5598 5595 5593 5591 5590 5589 5588 5587 5587 5587 5588 5589 5589 5590 5592 5593 5595 5596 5597 5598 5599 5600 5601 5602 5603 5604
5631 5629 5627 5626 5623 5619 5617 5616 5613 5611 5609 5608 5606 5604 5603 5599 5596 5594 5591 5589 5587 5585 5583 5582 5580 5579 5579 5579 5580 5580 5581 5582 5583 5584 5585 5586 5587 5588 5589 5590 5590 5591 5592 5594
5626 5624 5621 5620 5617 5614 5612 5611 5608 5606 5604 5602 5600 5599 5596 5593 5590 5588 5585 5582 5580 5578 5577 5575 5573 5572 5571 5571 5572 5572 5573 5573 5574 5575 5576 5577 5578 5578 5579 5579 5580 5581 5582 5583
5620 5617 5615 5613 5612 5608 5610 5605 5603 5600 5598 5596 5594 5592 5589 5587 5584 5582 5579 5576 5574 5572 5570 5568 5567 5566 5564 5564 5563 5563 5564 5564 5565 5566 5567 5567 5568 5568 5569 5570 5570 5571 5572 5573
5613 5611 5608 5606 5603 5602 5602 5599 5596 5594 5592 5590 5587 5585 5583 5580 5578 5576 5573 5570 5567 5565 5563 5562 5560 5559 5557 5556 5556 5556 5556 5556 5556 5557 5558 5559 5559 5560 5560 5560 5561 5561 5562 5563
5607 5605 5603 5600 5597 5595 5596 5593 5589 5588 5586 5584 5581 5578 5576 5573 5572 5571 5567 5564 5561 5559 5557 5555 5553 5552 5551 5549 5548 5548 5548 5548 5548 5549 5549 5550 5551 5551 5551 5551 5552 5552 5553 5553
5601 5598 5596 5593 5590 5589 5588 5586 5583 5582 5580 5577 5574 5571 5569 5566 5565 5563 5560 5557 5555 5553 5551 5548 5547 5545 5544 5542 5541 5540 5540 5540 5541 5541 5541 5542 5542 5543 5543 5543 5543 5544 5544 5545
5594 5591 5589 5586 5584 5584 5581 5578 5576 5574 5571 5568 5566 5564 5562 5559 5557 5555 5553 5550 5548 5546 5544 5542 5541 5539 5537 5535 5534 5533 5532 5532 5532 5532 5533 5533 5534 5534 5534 5535 5535 5535 5535 5536
5586 5585 5581 5580 5579 5576 5573 5570 5568 5565 5563 5561 5559 5557 5554 5552 5549 5547 5545 5543 5541 5539 5537 5535 5533 5531 5530 5528 5526 5525 5524 5524 5524 5524 5524 5525 5525 5525 5525 5526 5526 5526 5527 5527
5580 5577 5574 5572 5571 5568 5565 5562 5560 5558 5555 5553 5551 5549 5546 5544 5542 5539 5538 5535 5533 5531 5529 5527 5525 5524 5522 5520 5518 5517 5516 5515 5515 5515 5515 5516 5516 5516 5517 5517 5517 5517 5517 5518
5572 5569 5566 5564 5563 5560 5557 5554 5552 5549 5547 5545 5543 5541 5539 5536 5534 5532 5530 5528 5526 5524 5522 5520 5517 5516 5514 5512 5510 5508 5507 5506 5505 5505 5506 5506 5507 5507 5507 5507 5508 5508 5508 5509
5565 5562 5559 5556 5554 5551 5549 5546 5544 5541 5539 5537 5535 5533 5531 5528 5526 5524 5522 5520 5518 5516 5514 5511 5509 5507 5505 5503 5501 5500 5498 5497 5496 5496 5496 5497 5497 5498 5498 5498 5499 5498 5499 5500